Back to catalog

FENGYUN 1C DEB

AliveSSO
NORAD 31023·DEBRIS·🇨🇳 China

Launched May 10, 1999 from Taiyuan Satellite Launch Center

Loading…

Next Passes (next 24 hours)

TLE

FreshSource: Space-Track

Epoch: Sep 12, 2026, 04:34 UTC

1 31023U 99025BDR 26255.19083573  .00000090  00000-0  77590-4 0  9991
2 31023  98.8406 239.1027 0082264 172.7910 187.4462 14.06822814733460

Track FENGYUN 1C DEB in real time with AllMySat

Download on the App Store